Miscellaneous Local Product
Issued by NWS Hastings, NE

Home | Current Version | Previous Version | Graphics & Text | Print | Product List | Glossary On
Versions: 1 2 3 4 5 6 7 8 9 10 11 12 13 14 15 16 17 18 19 20 21 22 23 24 25 26 27 28 29 30 31 32 33 34 35 36 37 38 39 40 41 42 43 44 45 46 47 48 49 50
449
AXUS43 KGID 211702
MISGRI

GID CWA HOURLY WEATHER ROUNDUP
NATIONAL WEATHER SERVICE HASTINGS NE
1100 AM CST SAT JAN 21 2017

NOTE: "FAIR" INDICATES FEW OR NO CLOUDS BELOW 12,000 FEET WITH NO
SIGNIFICANT WEATHER AND/OR OBSTRUCTIONS TO VISIBILITY.

...SOUTH CENTRAL NEBRASKA...

CITY           SKY/WX    TMP DP  RH WIND       PRES   REMARKS
GRAND ISLAND   SUNNY     43  39  86 W8        29.45R
HASTINGS       SUNNY     41  36  82 W6        29.46R
KEARNEY        SUNNY     39  -9  12 SW7       29.46R WCI  34
ORD            SUNNY     42  35  76 W6        29.43R
YORK           SUNNY     41  39  93 W8        29.45R
AURORA         SUNNY     41  41 100 W6        29.45R
LEXINGTON      SUNNY     39  33  81 W6        29.45S WCI  34
HOLDREGE       SUNNY     40  36  85 W5        29.45S
HEBRON         SUNNY     41  41 100 NW3       29.48R

...NEBRASKA PANHANDLE...

CITY           SKY/WX    TMP DP  RH WIND       PRES   REMARKS
CHADRON        SUNNY     29  24  82 W9        29.43R WCI  20
ALLIANCE       SUNNY     32  27  81 W5        29.41R WCI  27
SCOTTSBLUFF    SUNNY     31  25  78 CALM      29.43R
SIDNEY         SUNNY     35  26  69 CALM      29.43R

...WESTERN AND NORTH CENTRAL NEBRASKA...

CITY           SKY/WX    TMP DP  RH WIND       PRES   REMARKS
VALENTINE      SUNNY     41  32  70 W10       29.40R
AINSWORTH      SUNNY     41  34  76 NW9       29.40S
ONEILL         SUNNY     42  35  76 W10       29.41S
BROKEN BOW     SUNNY     41  36  82 CALM      29.43R
IMPERIAL       SUNNY     39  26  59 NW6       29.44F WCI  35
NORTH PLATTE   SUNNY     37  30  75 W8        29.45R WCI  31
MCCOOK         SUNNY     38  32  79 NW7       29.45S WCI  33

...EASTERN NEBRASKA...

CITY           SKY/WX    TMP DP  RH WIND       PRES   REMARKS
NORFOLK        SUNNY     42  35  76 W9        29.42R
SO SIOUX CITY  PTSUNNY   43  38  82 W8        29.42R
TEKAMAH        PTSUNNY   39  37  92 SW8       29.44S WCI  33
COLUMBUS       SUNNY     41  37  87 W7        29.44F
ALBION         MOSUNNY  N/A N/A N/A W6        29.43S
OMAHA EPPLEY   PTSUNNY   44  39  82 W5        29.44F
OFFUTT AFB     SUNNY     42  42 100 W6        29.45S
MILLARD        SUNNY     43  41  93 W5        29.45R
LINCOLN        SUNNY     45  38  76 SW3       29.47R
NEBRASKA CITY  CLOUDY    38  38 100 SW8       29.48R FOG     WCI  32
BEATRICE       SUNNY     42  41  97 SW5       29.49R
FALLS CITY     CLOUDY    43  41  93 S9        29.52R

...NORTHERN KANSAS...

CITY           SKY/WX    TMP DP  RH WIND       PRES   REMARKS
GOODLAND       SUNNY     38  33  82 CALM      29.42R
HILL CITY      SUNNY     45  38  76 CALM      29.46S
NORTON         SUNNY     39  34  81 CALM      29.44S
PHILLIPSBURG   SUNNY     43  37  81 W3        29.47S
SMITH CENTER   SUNNY     37  37 100 CALM      29.48S
HAYS           SUNNY     42  36  79 SE3       29.49R
RUSSELL        SUNNY     41  36  82 S7        29.48R
CONCORDIA      SUNNY     44  40  85 S6        29.51R
SALINA         SUNNY     45  39  79 S6        29.53R
TOPEKA         SUNNY     45  40  82 SW6       29.54F



USA.gov is the U.S. government's official web portal to all federal, state and local government web resources and services.